[[{"header":{"parameterUnit":"m.s-1","parameterCategory":1,"la1":30.2991,"la2":30.254,"lo1":-89.0895,"lo2":-89.0444,"dy":0.0017,"dx":0.0017,"nx":28,"ny":28,"refTime":"2024-06-22T09:00:00:Z","depth":0,"parameterNumber":2,"parameterNumberName":"U-component_of_WINDS"},"data":[0,0,0,0,0,0,0,0,0,0,0,0,0,0,0,0,0,0,0,0,0,0,0,0,0,0,0,0,0,0,0,0,0,0,0,0,0,0,0,0,0,0,0,0,0,0,0,0,0,0,0,0,0,0,0,0,0,0,-1.1775,-1.1774,0,-1.1685,-1.1684,-1.1682,-1.1637,-1.1637,-1.1637,-1.1637,-1.1544,-1.1542,-1.1539,0,0,0,0,0,0,0,0,0,0,0,0,0,-1.191,-1.1908,-1.1775,-1.1774,-1.1772,-1.1685,-1.1683,-1.1682,-1.1637,-1.1637,-1.1637,-1.1637,-1.1545,-1.1542,-1.1539,0,0,0,0,0,0,0,0,0,0,0,0,0,-1.1839,-1.1907,-1.1775,-1.1739,-1.1735,-1.1685,-1.1683,-1.1682,-1.1637,-1.1637,-1.1637,-1.1637,-1.1546,-1.1542,-1.1539,-1.1517,0,0,-1.1528,-1.1526,0,0,0,0,0,0,0,0,-1.1843,-1.1834,-1.1746,-1.1742,-1.1737,-1.1672,-1.1697,-1.1627,-1.1637,-1.1674,-1.1637,-1.1637,-1.1587,-1.158,-1.1563,-1.1513,-1.1509,-1.1527,-1.1525,-1.1523,-1.1522,0,0,0,0,0,0,0,-1.1848,-1.1837,-1.1739,-1.1744,-1.1739,-1.1729,-1.1718,-1.1684,-1.1632,-1.1671,-1.1667,-1.1657,-1.1584,-1.1567,-1.156,-1.1507,-1.1527,-1.1524,-1.1522,-1.152,-1.1438,-1.1438,0,0,0,0,0,0,-1.1858,-1.1842,-1.1742,-1.1736,-1.1791,-1.1726,-1.1715,-1.1693,-1.1632,-1.1623,-1.1658,-1.1656,-1.1573,-1.1565,-1.1557,-1.1529,-1.1524,-1.152,-1.1518,-1.1438,-1.1438,-1.1438,0,0,0,0,0,0,-1.1861,-1.185,-1.1745,-1.1788,-1.1774,-1.1724,-1.17,-1.1691,-1.1673,-1.1622,-1.1613,-1.1649,-1.1572,-1.1562,-1.1528,-1.1525,-1.1518,-1.1515,-1.1438,-1.1438,-1.1438,-1.1472,0,0,0,0,0,0,-1.1865,-1.1851,-1.1841,-1.1788,-1.1772,-1.1717,-1.1699,-1.1689,-1.1667,-1.1664,-1.1611,-1.1602,-1.1572,-1.1534,-1.1524,-1.152,-1.1512,-1.1438,-1.1438,-1.1438,-1.147,-1.1473,-1.1475,0,0,0,0,0,-1.187,-1.1854,-1.1841,-1.1829,-1.1759,-1.1717,-1.1708,-1.1673,-1.1667,-1.1657,-1.1625,-1.1604,-1.1527,-1.1531,-1.152,-1.1514,-1.1438,-1.1438,-1.1438,-1.1469,-1.1472,-1.1475,0,0,0,0,0,0,-1.1907,-1.1846,-1.1831,-1.1797,-1.1763,-1.171,-1.1696,-1.1677,-1.1643,-1.1641,-1.1599,-1.1588,-1.1558,-1.1533,-1.1538,-1.1491,-1.1481,-1.1478,-1.1508,-1.1511,-1.1513,-1.1519,-1.1509,0,0,0,0,0,-1.1911,-1.1882,-1.1831,-1.1806,-1.1789,-1.1746,-1.1727,-1.1703,-1.1666,-1.1651,-1.1616,-1.1581,-1.1549,-1.1528,-1.1496,-1.1467,-1.1456,-1.1458,-1.1461,-1.1462,-1.1461,-1.1446,-1.1447,-1.1438,-1.1438,-1.1438,0,0,-1.1919,-1.1883,-1.1866,-1.1812,-1.1783,-1.1755,-1.1734,-1.1704,-1.1683,-1.1646,-1.1612,-1.1586,-1.1544,-1.1513,-1.1498,-1.1491,-1.1461,-1.1462,-1.1464,-1.1461,-1.1446,-1.1447,-1.1448,-1.1438,-1.1438,-1.1438,0,0,-1.1919,-1.1888,-1.1865,-1.1837,-1.1793,-1.1765,-1.176,-1.171,-1.1692,-1.1657,-1.163,-1.1605,-1.155,-1.1522,-1.1501,-1.1495,-1.1475,-1.1486,-1.1496,-1.1482,-1.1483,-1.1483,-1.1482,-1.1482,-1.1485,-1.1485,-1.1485,0,-1.1935,-1.189,-1.1855,-1.1828,-1.1806,-1.1773,-1.1749,-1.1724,-1.1672,-1.1658,-1.1651,-1.1584,-1.1554,-1.1517,-1.1516,-1.1499,-1.1493,-1.1491,-1.1486,-1.1486,-1.1486,-1.1484,-1.1484,-1.1486,-1.1486,-1.1486,-1.1486,0,-1.1912,-1.1882,-1.1869,-1.1821,-1.1797,-1.1772,-1.1734,-1.1715,-1.1695,-1.1668,-1.1635,-1.1598,-1.1558,-1.1548,-1.1527,-1.1509,-1.1506,-1.1494,-1.1482,-1.1489,-1.1487,-1.1486,-1.1489,-1.1488,-1.1488,-1.1487,0,0,-1.1929,-1.1865,-1.1861,-1.184,-1.1791,-1.1768,-1.1743,-1.1705,-1.169,-1.1656,-1.1635,-1.1591,-1.158,-1.1556,-1.1532,-1.152,-1.152,-1.1509,-1.1507,-1.1513,-1.15,-1.1509,-1.1509,-1.1507,-1.1507,-1.1507,-1.1503,0,-1.1923,-1.1875,-1.1845,-1.181,-1.1783,-1.1753,-1.1732,-1.17,-1.1676,-1.165,-1.1623,-1.1593,-1.158,-1.1566,-1.1553,-1.1523,-1.1517,-1.1523,-1.1487,-1.1486,-1.1498,-1.1508,-1.1517,-1.1515,-1.1502,-1.1502,-1.1502,0,-1.1908,-1.1876,-1.1839,-1.1796,-1.1784,-1.1765,-1.1729,-1.1705,-1.167,-1.1653,-1.1629,-1.1605,-1.1579,-1.1572,-1.1535,-1.154,-1.1525,-1.1508,-1.1508,-1.1502,-1.1494,-1.1503,-1.1514,-1.1513,-1.15,-1.15,-1.15,0,-1.1925,-1.1874,-1.1845,-1.1828,-1.1777,-1.1765,-1.1743,-1.1708,-1.1689,-1.1658,-1.1645,-1.1612,-1.1594,-1.157,-1.1539,-1.1536,-1.1507,-1.1496,-1.1493,-1.1494,-1.1486,-1.1487,-1.1495,-1.1477,-1.1477,-1.1477,-1.1477,0,-1.192,-1.1899,-1.1853,-1.1835,-1.1811,-1.1777,-1.1755,-1.1731,-1.1701,-1.1679,-1.1652,-1.1632,-1.1593,-1.1569,-1.1545,-1.152,-1.1512,-1.1498,-1.1492,-1.15,-1.1502,-1.1488,-1.1487,-1.1477,-1.1477,-1.1477,-1.1477,0,-1.1934,-1.1902,-1.187,-1.1826,-1.1814,-1.1798,-1.1761,-1.1744,-1.1719,-1.1692,-1.1684,-1.1645,-1.1616,-1.1584,-1.1543,-1.1528,-1.1504,-1.1495,-1.1516,-1.1512,-1.1511,-1.1512,-1.151,-1.1508,-1.1492,-1.1492,-1.1493,0,-1.1933,-1.1916,-1.1871,-1.1855,-1.1834,-1.1808,-1.1788,-1.1756,-1.1737,-1.1698,-1.1686,-1.1655,-1.1628,-1.1583,-1.1552,-1.1522,-1.1512,-1.1514,-1.1507,-1.1517,-1.1513,-1.1514,-1.1513,-1.1515,-1.1516,-1.1516,-1.1516,0,-1.1934,-1.192,-1.1893,-1.1861,-1.1839,-1.1813,-1.1785,-1.1774,-1.1736,-1.1716,-1.1687,-1.1666,-1.1627,-1.1597,-1.1564,-1.1542,-1.1523,-1.1519,-1.1517,-1.1524,-1.1537,-1.1531,-1.1521,-1.1518,-1.1518,-1.1518,-1.1518,-1.1518,-1.194,-1.1925,-1.1891,-1.1863,-1.1839,-1.1815,-1.1797,-1.1772,-1.1747,-1.1712,-1.1695,-1.1666,-1.1634,-1.1588,-1.1568,-1.1545,-1.1539,-1.1535,-1.1534,-1.1534,-1.1537,-1.1542,-1.1539,-1.1539,-1.1539,-1.1539,-1.1539,0,-1.194,-1.1918,-1.1893,-1.1856,-1.1834,-1.182,-1.179,-1.1773,-1.1748,-1.172,-1.1695,-1.1663,-1.1635,-1.1603,-1.1573,-1.1561,-1.1552,-1.1555,-1.1555,-1.1551,-1.1543,-1.1549,-1.1563,-1.1563,-1.1563,-1.1563,-1.1563,-1.1563,-1.1938,-1.1911,-1.1894,-1.1857,-1.1835,-1.1807,-1.1791,-1.1769,-1.1747,-1.1712,-1.1689,-1.1669,-1.164,-1.1609,-1.1583,-1.1575,-1.1565,-1.157,-1.1559,-1.1553,-1.1551,-1.1549,-1.1553,-1.1568,-1.1569,-1.1568,-1.1568,-1.1568]},{"header":{"parameterUnit":"m.s-1","parameterCategory":1,"la1":30.2991,"la2":30.254,"lo1":-89.0895,"lo2":-89.0444,"dy":0.0017,"dx":0.0017,"nx":28,"ny":28,"refTime":"2024-06-22T09:00:00:Z","depth":0,"parameterNumber":3,"parameterNumberName":"V-component_of_WINDS"},"data":[0,0,0,0,0,0,0,0,0,0,0,0,0,0,0,0,0,0,0,0,0,0,0,0,0,0,0,0,0,0,0,0,0,0,0,0,0,0,0,0,0,0,0,0,0,0,0,0,0,0,0,0,0,0,0,0,0,0,3.3707,3.3707,0,3.3719,3.3719,3.3719,3.3766,3.3767,3.3768,3.3769,3.3776,3.3775,3.3774,0,0,0,0,0,0,0,0,0,0,0,0,0,3.3722,3.3721,3.3707,3.3707,3.3708,3.3719,3.3719,3.3719,3.3766,3.3767,3.3768,3.377,3.3776,3.3775,3.3774,0,0,0,0,0,0,0,0,0,0,0,0,0,3.3722,3.3721,3.3707,3.3732,3.3735,3.3719,3.3719,3.3719,3.3765,3.3767,3.3769,3.377,3.3777,3.3775,3.3774,3.3734,0,0,3.377,3.377,0,0,0,0,0,0,0,0,3.3722,3.3722,3.3728,3.373,3.3733,3.3743,3.3727,3.3724,3.3765,3.3753,3.3769,3.3771,3.3763,3.3763,3.3762,3.3734,3.3734,3.377,3.377,3.3769,3.3769,0,0,0,0,0,0,0,3.3722,3.3722,3.3712,3.3728,3.3731,3.3742,3.3744,3.3726,3.3749,3.3755,3.3758,3.3759,3.3765,3.3763,3.3762,3.3734,3.377,3.3769,3.3768,3.3768,3.3674,3.3672,0,0,0,0,0,0,3.3719,3.3721,3.3711,3.3712,3.3732,3.374,3.3742,3.3738,3.3749,3.3753,3.3758,3.3761,3.3764,3.3764,3.3763,3.3716,3.3769,3.3768,3.3767,3.3676,3.3674,3.3672,0,0,0,0,0,0,3.3719,3.3718,3.3711,3.3718,3.3718,3.3738,3.3733,3.3737,3.3735,3.3752,3.3755,3.3752,3.3765,3.3764,3.3741,3.3717,3.3767,3.3766,3.3678,3.3675,3.3673,3.3622,0,0,0,0,0,0,3.372,3.3718,3.3703,3.3717,3.3717,3.369,3.3731,3.3736,3.3733,3.3738,3.3747,3.375,3.3767,3.3742,3.374,3.3716,3.3765,3.368,3.3677,3.3673,3.3626,3.3618,3.3611,0,0,0,0,0,3.372,3.3687,3.3702,3.3701,3.37,3.3688,3.3688,3.371,3.3731,3.3716,3.3727,3.375,3.372,3.374,3.3737,3.3712,3.3682,3.3678,3.3674,3.3629,3.3619,3.3611,0,0,0,0,0,0,3.3669,3.369,3.3706,3.3678,3.3681,3.3696,3.3678,3.3699,3.3695,3.3699,3.3724,3.3726,3.3698,3.3703,3.3725,3.3674,3.3705,3.37,3.3671,3.3662,3.3655,3.3654,3.3764,0,0,0,0,0,3.3654,3.3645,3.3663,3.3636,3.3637,3.3657,3.3653,3.3669,3.3673,3.3674,3.3683,3.3685,3.3676,3.367,3.3663,3.3627,3.3629,3.3609,3.3601,3.3595,3.359,3.3572,3.3563,3.3659,3.3659,3.3659,0,0,3.3624,3.3634,3.3626,3.3626,3.363,3.3619,3.3658,3.3644,3.3635,3.3672,3.3651,3.3657,3.3661,3.3631,3.3618,3.3634,3.3565,3.359,3.3585,3.3584,3.3567,3.3558,3.3549,3.3656,3.3657,3.3657,0,0,3.3562,3.357,3.3548,3.3552,3.3559,3.3573,3.3568,3.358,3.3587,3.3566,3.3593,3.3583,3.3567,3.3569,3.3567,3.3507,3.3528,3.3504,3.3465,3.3447,3.3439,3.3432,3.341,3.3402,3.35,3.3499,3.3499,0,3.3523,3.3508,3.3534,3.3518,3.3517,3.3552,3.3529,3.3531,3.3535,3.3532,3.3551,3.3532,3.3537,3.3508,3.3494,3.3492,3.3486,3.3503,3.3438,3.3432,3.3426,3.3405,3.3397,3.3497,3.3497,3.3497,3.3497,0,3.3459,3.3448,3.343,3.3434,3.3431,3.3412,3.3433,3.3427,3.3443,3.3455,3.3433,3.3441,3.3435,3.343,3.3445,3.3403,3.3413,3.3434,3.3466,3.3414,3.3395,3.3387,3.3492,3.3493,3.3494,3.3495,0,0,3.3365,3.3385,3.3377,3.338,3.3391,3.3382,3.3364,3.3361,3.3354,3.3356,3.3341,3.3327,3.3348,3.3346,3.3362,3.3346,3.3298,3.337,3.337,3.3355,3.3251,3.3234,3.3224,3.3312,3.331,3.3309,3.325,0,3.3306,3.3278,3.3301,3.3268,3.3258,3.3291,3.3276,3.328,3.329,3.3282,3.3293,3.3283,3.3311,3.331,3.3296,3.3306,3.3277,3.3311,3.3297,3.3296,3.3294,3.3215,3.3197,3.3141,3.3243,3.3242,3.3241,0,3.3233,3.3233,3.32,3.3213,3.321,3.3196,3.3195,3.3187,3.3192,3.3201,3.32,3.322,3.3203,3.3234,3.321,3.3233,3.3228,3.3233,3.3231,3.323,3.3264,3.321,3.3123,3.3115,3.3229,3.323,3.3231,0,3.3167,3.3158,3.3138,3.3139,3.3154,3.3143,3.3149,3.3156,3.3152,3.3151,3.3149,3.3145,3.3142,3.3138,3.3157,3.3179,3.313,3.3163,3.3135,3.3135,3.3123,3.3123,3.3033,3.3121,3.3121,3.3121,3.3122,0,3.3098,3.3076,3.3108,3.3095,3.3071,3.3097,3.3073,3.3082,3.3088,3.3076,3.3105,3.3093,3.3119,3.3109,3.3123,3.3101,3.3099,3.3105,3.3109,3.3102,3.3101,3.3099,3.3103,3.3119,3.312,3.312,3.312,0,3.302,3.304,3.302,3.3036,3.304,3.3022,3.3035,3.3023,3.3036,3.3021,3.3019,3.3039,3.3029,3.3048,3.304,3.305,3.3018,3.3028,3.3017,3.3019,3.299,3.2993,3.2895,3.2883,3.2979,3.2978,3.2977,0,3.2974,3.2959,3.2974,3.2969,3.2974,3.2965,3.2962,3.2987,3.2983,3.2988,3.2975,3.2969,3.2964,3.2947,3.296,3.2955,3.2964,3.2931,3.2964,3.2957,3.2963,3.2964,3.2962,3.2923,3.2922,3.2921,3.2921,0,3.2891,3.2902,3.2898,3.2897,3.2893,3.2894,3.2896,3.2889,3.2916,3.291,3.2901,3.2898,3.2891,3.2884,3.2881,3.2886,3.2907,3.291,3.2904,3.2896,3.289,3.2892,3.2997,3.2912,3.2913,3.2914,3.2914,3.2914,3.2827,3.2815,3.2824,3.2818,3.2823,3.2824,3.2814,3.2826,3.282,3.2818,3.2833,3.2821,3.2826,3.2826,3.2828,3.2818,3.2833,3.2823,3.2821,3.2818,3.2813,3.2892,3.2818,3.2818,3.2818,3.2818,3.2819,0,3.2745,3.2753,3.2748,3.275,3.2746,3.2768,3.2772,3.2766,3.2755,3.276,3.2755,3.2745,3.2739,3.2751,3.2746,3.2736,3.2745,3.2734,3.2734,3.2735,3.28,3.2806,3.2726,3.2726,3.2726,3.2726,3.2726,3.2726,3.2702,3.2682,3.2694,3.2677,3.2685,3.2674,3.2674,3.2675,3.2679,3.2667,3.2662,3.2671,3.2679,3.2675,3.2669,3.2673,3.2669,3.2654,3.2661,3.2721,3.273,3.2739,3.2745,3.2653,3.2653,3.2596,3.2596,3.2596]}]]